Погода в Мачехе

Россия / Волгоградская область     50˚48′38″N   43˚18′54″E
темп.,
°C
ветер,
м/с
пор.,
м/с
влажн.,
%
обл.,
%
осадки,
мм/ч
давл.,
гПа
погр.,
м
15 января, пт
пт1500:00−9˚зсз3494100 0.1 100969
03:00−11˚сз339498 0.1 100931
06:00−9˚ссз2296100 0.1 100922
09:00−7˚ссв2496100 0.1 1009144
12:00−6˚св3494100 0.1 1008272
15:00−6˚ссв2396100 2.0 1007243
18:00−6˚с3596100 2.9 1005274
21:00−7˚зсз4596100 5.6 1004230
16 января, сб
сб1600:00−9˚зсз6995100 2.3 1003369
03:00−9˚з71394100 3.5 1005568
06:00−8˚зюз61193100 0.4 1005491
09:00−11˚юз5109697 0.5 1006225
12:00−8˚зюз8139199 0.2 1007606
15:00−12˚зюз8149199 0.3 1008677
18:00−12˚зюз81491100 0.1 1010616
21:00−14˚зюз61392100 0.2 1012464
17 января, вс
вс1700:00−16˚зюз5119499 0.0 1013302
03:00−18˚зюз5109691 0.0 1014227
06:00−21˚зюз479720 0.0 1014124
09:00−22˚зюз349711 0.0 101656
12:00−19˚з249443 0.0 1016186
15:00−20˚зсз119646 0.0 101620
18:00−21˚сз129675 0.0 101720
21:00−21˚ссв119587 0.0 101820
18 января, пн
пн1800:00−21˚св3394100 0.0 101753
03:00−22˚св349497 0.0 101743
06:00−22˚ссв3394100 0.0 101738
09:00−20˚ссв2293100 0.0 101884
12:00−18˚ссв3591100 0.0 1018233
15:00−17˚с3596100 1.1 1017255
18:00−17˚ссв3597100 1.8 1018252
21:00−17˚с3597100 2.8 1018247
19 января, вт
вт1900:00−17˚ссз2497100 0.6 1018226
03:00−17˚ссз3497100 1.1 1018213
06:00−18˚сз2497100 0.2 1018123
09:00−18˚сз2497100 0.3 1020154
12:00−17˚зсз3594100 0.1 1019273
15:00−17˚зсз3594100 0.1 1019332
18:00−18˚зсз3697100 0.1 1020194
21:00−18˚зсз3597100 0.1 1020177